[[{"header":{"parameterUnit":"m.s-1","parameterCategory":2,"la1":30.2991,"la2":30.254,"lo1":-89.0895,"lo2":-89.0444,"dy":0.0017,"dx":0.0017,"nx":28,"ny":28,"refTime":"2023-07-26T03:00:00:Z","depth":"0","parameterNumber":2,"parameterNumberName":"U-component_of_CURRENTS"},"data":[0,0,0,0,0,0,0,0,0,0,0,0,0,0,0,0,0,0,0,0,0,0,0,0,0,0,0,0,0,0,0,0,0,0,0,0,0,0,0,0,0,0,0,0,0,0,0,0,0,0,0,0,0,0,0,0,0,0,0.2107,0.2107,0,0.2072,0.2072,0.2072,0.2059,0.2059,0.206,0.206,0.2001,0.2,0.1998,0,0,0,0,0,0,0,0,0,0,0,0,0,0.216,0.2159,0.2107,0.2107,0.2106,0.2073,0.2072,0.2071,0.2059,0.2059,0.206,0.206,0.2002,0.2,0.1998,0,0,0,0,0,0,0,0,0,0,0,0,0,0.2131,0.2159,0.2107,0.2097,0.2096,0.2073,0.2072,0.2071,0.2059,0.2059,0.206,0.206,0.2003,0.2,0.1997,0.1974,0,0,0.1989,0.1988,0,0,0,0,0,0,0,0,0.2133,0.2129,0.2099,0.2098,0.2096,0.2071,0.2069,0.2038,0.2059,0.2072,0.206,0.206,0.2023,0.2019,0.201,0.1972,0.1969,0.1989,0.1988,0.1986,0.1986,0,0,0,0,0,0,0,0.2135,0.2131,0.2092,0.2098,0.2097,0.2093,0.209,0.2063,0.2045,0.2071,0.207,0.2068,0.2022,0.2013,0.2009,0.1968,0.1989,0.1987,0.1985,0.1984,0.204,0.2043,0,0,0,0,0,0,0.2141,0.2132,0.2093,0.2091,0.2117,0.2092,0.2088,0.2078,0.2045,0.2041,0.2068,0.2067,0.2017,0.2012,0.2007,0.2096,0.1986,0.1984,0.1982,0.2037,0.204,0.2044,0,0,0,0,0,0,0.2142,0.2137,0.2095,0.2113,0.2107,0.2091,0.208,0.2077,0.2083,0.2044,0.2039,0.2078,0.2017,0.201,0.2023,0.2089,0.1983,0.198,0.2033,0.2038,0.2042,0.2198,0,0,0,0,0,0,0.2144,0.2138,0.2135,0.2113,0.2106,0.2109,0.208,0.2076,0.2081,0.2081,0.2051,0.2045,0.2017,0.2028,0.202,0.2083,0.1978,0.2029,0.2035,0.204,0.2189,0.2207,0.2223,0,0,0,0,0,0.2145,0.2146,0.2135,0.2131,0.2102,0.2111,0.2108,0.2097,0.2082,0.21,0.2088,0.2047,0.206,0.2027,0.2018,0.2082,0.2026,0.2033,0.204,0.2181,0.2203,0.2222,0,0,0,0,0,0,0.2163,0.2144,0.2132,0.2124,0.2129,0.211,0.2116,0.2107,0.2109,0.2109,0.2069,0.2064,0.2111,0.2069,0.2034,0.2118,0.2042,0.2048,0.2153,0.2173,0.219,0.2213,0.1976,0,0,0,0,0,0.2166,0.2163,0.2151,0.2148,0.215,0.2134,0.2134,0.2134,0.2129,0.213,0.2115,0.2109,0.2129,0.2127,0.213,0.2153,0.2179,0.2194,0.2212,0.2226,0.2241,0.2357,0.2387,0.2066,0.2066,0.2066,0,0,0.2167,0.2159,0.2154,0.2152,0.2147,0.2168,0.2136,0.2151,0.2182,0.2122,0.216,0.2166,0.2151,0.2203,0.2219,0.2174,0.2336,0.2235,0.2248,0.2255,0.2367,0.2399,0.2427,0.2071,0.207,0.2069,0,0,0.2182,0.2167,0.2176,0.2191,0.22,0.22,0.2212,0.2214,0.223,0.2257,0.2254,0.2306,0.2286,0.2328,0.2335,0.2441,0.243,0.2437,0.2531,0.2644,0.2672,0.2696,0.2792,0.2824,0.2437,0.2437,0.2438,0,0.219,0.2191,0.2184,0.221,0.2227,0.2221,0.2252,0.227,0.2285,0.2324,0.2288,0.2369,0.2356,0.2463,0.2508,0.2484,0.2535,0.2453,0.2669,0.2694,0.2716,0.2808,0.2842,0.2446,0.2445,0.2444,0.2443,0,0.2215,0.2227,0.2238,0.2266,0.2294,0.2319,0.2349,0.2388,0.2397,0.2428,0.2531,0.2539,0.2591,0.2611,0.2583,0.275,0.2733,0.2687,0.262,0.2759,0.2846,0.2878,0.2458,0.2455,0.2452,0.245,0,0,0.2201,0.2246,0.2249,0.2275,0.2327,0.2349,0.2424,0.2496,0.2558,0.2604,0.2694,0.2772,0.2796,0.2809,0.2814,0.2908,0.3117,0.2868,0.287,0.297,0.3375,0.3455,0.3496,0.3115,0.3121,0.3125,0.338,0,0.2221,0.227,0.2298,0.2359,0.2386,0.2434,0.2505,0.2585,0.2639,0.2728,0.2802,0.2878,0.2865,0.2897,0.3008,0.308,0.3204,0.3052,0.322,0.3225,0.3285,0.3537,0.3543,0.3779,0.3411,0.3416,0.342,0,0.2233,0.2265,0.232,0.2406,0.2426,0.247,0.2588,0.2651,0.2792,0.2847,0.2966,0.3005,0.317,0.3107,0.3367,0.3272,0.3352,0.3404,0.3414,0.3455,0.3366,0.3577,0.385,0.3626,0.3468,0.3464,0.3461,0,0.2211,0.2283,0.2325,0.2352,0.245,0.2496,0.255,0.2686,0.2762,0.2917,0.2987,0.3179,0.3262,0.3414,0.3542,0.3468,0.3811,0.371,0.3871,0.3874,0.3897,0.3894,0.398,0.3922,0.3922,0.3921,0.392,0,0.2214,0.2248,0.231,0.2333,0.24,0.2478,0.2571,0.2662,0.2807,0.2927,0.3037,0.3171,0.3345,0.3536,0.3631,0.3897,0.3905,0.3969,0.3986,0.3952,0.3952,0.3764,0.363,0.3931,0.3929,0.3927,0.3925,0,0.2182,0.2223,0.227,0.2358,0.2384,0.2425,0.2545,0.262,0.2765,0.2918,0.2971,0.3216,0.35,0.3683,0.395,0.4029,0.4138,0.4309,0.426,0.427,0.4193,0.4069,0.4071,0.3967,0.4551,0.4555,0.4558,0,0.217,0.2187,0.2258,0.2275,0.2305,0.2371,0.2423,0.2575,0.2663,0.2956,0.303,0.3345,0.3566,0.4016,0.4266,0.4542,0.4303,0.4664,0.4536,0.4277,0.4149,0.3872,0.376,0.4624,0.4627,0.463,0.4633,0,0.214,0.2159,0.2188,0.2221,0.2255,0.231,0.2394,0.2468,0.2676,0.2833,0.3096,0.3295,0.3791,0.4103,0.449,0.4677,0.4436,0.4736,0.4494,0.4283,0.3964,0.384,0.4324,0.466,0.4657,0.4655,0.4654,0.4653,0.2102,0.2104,0.2132,0.2162,0.2192,0.2237,0.2272,0.2406,0.256,0.2815,0.306,0.336,0.3833,0.441,0.4567,0.4797,0.463,0.471,0.4606,0.4364,0.4195,0.4753,0.5077,0.5076,0.5076,0.5076,0.5076,0,0.2045,0.2051,0.2074,0.2094,0.2092,0.2146,0.2244,0.2295,0.2447,0.2754,0.2996,0.349,0.3866,0.4253,0.4667,0.461,0.4427,0.4507,0.4077,0.3994,0.4556,0.4486,0.4664,0.4664,0.4664,0.4665,0.4665,0.4665,0.201,0.2003,0.2018,0.1989,0.1998,0.1994,0.2035,0.2154,0.2348,0.2682,0.297,0.3257,0.3679,0.4073,0.4228,0.426,0.3866,0.3824,0.3632,0.3963,0.3967,0.3972,0.3871,0.3918,0.3917,0.2978,0.2971,0.2965]},{"header":{"parameterUnit":"m.s-1","parameterCategory":2,"la1":30.2991,"la2":30.254,"lo1":-89.0895,"lo2":-89.0444,"dy":0.0017,"dx":0.0017,"nx":28,"ny":28,"refTime":"2023-07-26T03:00:00:Z","depth":"0","parameterNumber":3,"parameterNumberName":"V-component_of_CURRENTS"},"data":[0,0,0,0,0,0,0,0,0,0,0,0,0,0,0,0,0,0,0,0,0,0,0,0,0,0,0,0,0,0,0,0,0,0,0,0,0,0,0,0,0,0,0,0,0,0,0,0,0,0,0,0,0,0,0,0,0,0,-0.0029,-0.0029,0,0.0037,0.0037,0.0038,0.0019,0.0018,0.0017,0.0016,-0.0055,-0.0055,-0.0056,0,0,0,0,0,0,0,0,0,0,0,0,0,-0.015,-0.0148,-0.0029,-0.0029,-0.0028,0.0036,0.0037,0.0038,0.002,0.0018,0.0016,0.0015,-0.0054,-0.0055,-0.0056,0,0,0,0,0,0,0,0,0,0,0,0,0,-0.0092,-0.0147,-0.003,-0.0029,-0.0028,0.0036,0.0037,0.0038,0.002,0.0018,0.0016,0.0014,-0.0054,-0.0055,-0.0056,-0.0022,0,0,-0.0059,-0.0059,0,0,0,0,0,0,0,0,-0.0096,-0.0088,-0.003,-0.0029,-0.0028,0.0018,-0.0031,0.0012,0.002,0.0001,0.0015,0.0013,-0.0041,-0.0043,-0.0025,-0.0026,-0.0029,-0.0059,-0.006,-0.006,-0.006,0,0,0,0,0,0,0,-0.01,-0.0091,-0.0004,-0.0029,-0.0028,-0.0025,-0.0019,-0.0022,-0.0012,0.0003,0.0002,0.001,-0.0042,-0.0024,-0.0027,-0.003,-0.0059,-0.006,-0.006,-0.0061,-0.0037,-0.0036,0,0,0,0,0,0,-0.0106,-0.0094,-0.0006,-0.0002,-0.0067,-0.0021,-0.0015,0.0005,-0.0009,-0.0012,0.0012,0.0009,-0.0021,-0.0026,-0.003,0.001,-0.006,-0.0061,-0.0061,-0.0039,-0.0037,-0.0036,0,0,0,0,0,0,-0.0108,-0.0098,-0.0008,-0.0047,-0.0036,-0.0017,0.0005,0.0007,0.0021,-0.0001,-0.0007,0.0023,-0.0023,-0.0029,-0.0027,0.0007,-0.0061,-0.0062,-0.004,-0.0038,-0.0037,0.0089,0,0,0,0,0,0,-0.0112,-0.0099,-0.0082,-0.0047,-0.0034,0.0038,0.0007,0.001,0.003,0.0027,0.0006,-0.0002,-0.0025,-0.0025,-0.0028,0.0004,-0.0063,-0.0042,-0.0039,-0.0037,0.0084,0.0095,0.0105,0,0,0,0,0,-0.0116,-0.0081,-0.0082,-0.0071,-0.0013,0.004,0.0048,0.0053,0.0032,0.0055,0.0035,-0.0001,-0.0014,-0.0024,-0.0028,0.0005,-0.0043,-0.004,-0.0037,0.0079,0.0093,0.0105,0,0,0,0,0,0,-0.0124,-0.0078,-0.0079,-0.0032,0.0002,0.0037,0.0062,0.0061,0.0068,0.0057,0.0022,0.0015,0.0024,-0.0003,-0.0014,0.0015,-0.0037,-0.0035,0.0052,0.0065,0.0076,0.0098,-0.0064,0,0,0,0,0,-0.0117,-0.0078,-0.0042,-0.0002,0.0015,0.0038,0.0059,0.0065,0.0076,0.0078,0.0069,0.0049,0.0038,0.0036,0.0022,0.0049,0.0007,0.0063,0.0073,0.0083,0.0098,0.0073,0.0083,-0.0027,-0.0027,-0.0027,0,0,-0.0107,-0.0078,-0.0055,-0.0001,0.0024,0.0082,0.0046,0.0088,0.013,0.0068,0.0117,0.0085,0.005,0.0076,0.0078,0.0057,0.0089,0.0086,0.0095,0.0105,0.0077,0.0087,0.0097,-0.0025,-0.0026,-0.0026,0,0,-0.0058,-0.0043,0.0009,0.0046,0.0091,0.0112,0.0125,0.0166,0.0174,0.0215,0.0173,0.017,0.0167,0.016,0.0148,0.021,0.0141,0.0195,0.0279,0.0256,0.0265,0.0272,0.0223,0.0225,0.0208,0.0208,0.0208,0,-0.0058,0.0025,0.0032,0.0094,0.0138,0.013,0.0202,0.022,0.0256,0.0275,0.024,0.0246,0.0213,0.0241,0.0261,0.0238,0.0198,0.0237,0.0271,0.0278,0.0283,0.0231,0.0232,0.0215,0.0214,0.0213,0.0213,0,0.0042,0.0105,0.014,0.022,0.0263,0.0324,0.035,0.0383,0.0383,0.0401,0.0423,0.0384,0.0384,0.0373,0.0337,0.0367,0.0315,0.0283,0.0243,0.0302,0.0243,0.0241,0.0224,0.0221,0.0219,0.0218,0,0,0.0049,0.0183,0.0196,0.0266,0.0336,0.0391,0.045,0.0516,0.0563,0.0564,0.0614,0.0594,0.0557,0.054,0.0489,0.0476,0.0474,0.0405,0.0401,0.0365,0.04,0.0387,0.0383,0.0444,0.0445,0.0445,0.0339,0,0.0125,0.0273,0.0316,0.0459,0.0543,0.056,0.0624,0.0671,0.0689,0.0731,0.0678,0.0696,0.0622,0.0615,0.0592,0.0509,0.0477,0.0504,0.034,0.0335,0.0325,0.0385,0.0436,0.0349,0.0337,0.0336,0.0336,0,0.0216,0.0308,0.046,0.0603,0.0637,0.0711,0.0813,0.087,0.0901,0.0907,0.0903,0.0846,0.0825,0.074,0.0636,0.0654,0.0537,0.0461,0.0454,0.0402,0.0322,0.0288,0.0345,0.0123,0.0333,0.0333,0.0333,0,0.0252,0.0414,0.0543,0.0595,0.0738,0.0799,0.0865,0.0927,0.0982,0.101,0.1031,0.0987,0.0959,0.0835,0.067,0.0649,0.0537,0.0483,0.0355,0.035,0.0344,0.0339,0.0179,0.0394,0.0394,0.0394,0.0394,0,0.0334,0.044,0.0574,0.0651,0.0798,0.0864,0.0996,0.1046,0.1105,0.1185,0.1115,0.1144,0.0981,0.0886,0.0718,0.0549,0.0567,0.0386,0.0338,0.0387,0.0387,0.0151,0.002,0.039,0.0391,0.0392,0.0392,0,0.0378,0.0461,0.0619,0.0775,0.0828,0.0932,0.108,0.1165,0.1205,0.1295,0.1298,0.1264,0.1169,0.098,0.0788,0.0622,0.034,0.0367,0.0427,0.039,0.0079,-0.0045,-0.0222,-0.0311,0.0225,0.0224,0.0223,0,0.0422,0.051,0.0698,0.0786,0.0866,0.1014,0.1112,0.1207,0.1292,0.1375,0.1417,0.1356,0.1347,0.1067,0.0782,0.0501,0.0309,0.0335,0.0314,0.0087,-0.0088,-0.0151,-0.0219,0.0336,0.0336,0.0337,0.0337,0,0.0507,0.0565,0.069,0.0859,0.0987,0.1141,0.1283,0.1361,0.1467,0.1544,0.1625,0.1627,0.1384,0.1167,0.0794,0.0592,0.0215,0.0332,0.0091,-0.0006,-0.0079,-0.0195,0.0348,0.034,0.0339,0.0339,0.0339,0.0339,0.0553,0.0648,0.0793,0.0954,0.1093,0.1255,0.1371,0.1508,0.1658,0.1805,0.18,0.1881,0.1536,0.1064,0.0731,0.0195,0.0174,0.0037,-0.0097,-0.0141,-0.0212,0.0331,0.0276,0.0276,0.0275,0.0275,0.0274,0,0.0617,0.0727,0.088,0.1072,0.1213,0.1284,0.1476,0.1586,0.176,0.1953,0.2053,0.2009,0.1549,0.1057,0.0317,-0.0145,-0.0285,-0.0385,-0.0477,-0.0528,-0.0048,-0.0028,-0.0142,-0.0142,-0.0141,-0.0141,-0.0141,-0.0141,0.0658,0.0807,0.0892,0.1133,0.126,0.1439,0.1545,0.1713,0.1878,0.2139,0.2285,0.2365,0.1972,0.0613,-0.0361,-0.0584,-0.09,-0.0946,-0.1148,-0.0851,-0.0822,-0.0795,-0.0806,-0.1082,-0.1083,-0.1522,-0.1527,-0.1531]}],[{"header":{"parameterUnit":"m.s-1","parameterCategory":2,"la1":30.2991,"la2":30.254,"lo1":-89.0895,"lo2":-89.0444,"dy":0.0017,"dx":0.0017,"nx":28,"ny":28,"refTime":"2023-07-26T03:00:00:Z","depth":"2","parameterNumber":2,"parameterNumberName":"U-component_of_CURRENTS"},"data":[0,0,0,0,0,0,0,0,0,0,0,0,0,0,0,0,0,0,0,0,0,0,0,0,0,0,0,0,0,0,0,0,0,0,0,0,0,0,0,0,0,0,0,0,0,0,0,0,0,0,0,0,0,0,0,0,0,0,0.2652,0.2652,0,0.2714,0.2715,0.2715,0.2722,0.2722,0.2721,0.2721,0.2771,0.2773,0.2774,0,0,0,0,0,0,0,0,0,0,0,0,0,0.2542,0.2544,0.2651,0.2653,0.2654,0.2714,0.2715,0.2715,0.2722,0.2722,0.2721,0.2721,0.2771,0.2773,0.2774,0,0,0,0,0,0,0,0,0,0,0,0,0,0.2592,0.2544,0.2651,0.2667,0.267,0.2714,0.2715,0.2715,0.2722,0.2722,0.2721,0.2721,0.277,0.2772,0.2775,0.2798,0,0,0.2782,0.2783,0,0,0,0,0,0,0,0,0.2589,0.2595,0.2664,0.2666,0.2669,0.2713,0.2695,0.2744,0.2722,0.2698,0.2721,0.2721,0.2754,0.2757,0.2765,0.28,0.2803,0.2782,0.2784,0.2785,0.2785,0,0,0,0,0,0,0,0.2586,0.2593,0.2672,0.2665,0.2668,0.2673,0.2679,0.2704,0.2724,0.27,0.2702,0.2715,0.2754,0.2762,0.2766,0.2803,0.2782,0.2784,0.2786,0.2787,0.2861,0.2862,0,0,0,0,0,0,0.2586,0.259,0.267,0.2675,0.2631,0.2676,0.2682,0.2696,0.2724,0.2729,0.2715,0.2715,0.2758,0.2763,0.2768,0.2797,0.2785,0.2787,0.2788,0.2861,0.2862,0.2862,0,0,0,0,0,0,0.2584,0.2593,0.2668,0.2636,0.2647,0.2678,0.2694,0.2698,0.2697,0.2737,0.274,0.271,0.2758,0.2764,0.2784,0.2799,0.2788,0.279,0.286,0.2861,0.2862,0.2856,0,0,0,0,0,0,0.258,0.2591,0.2593,0.2637,0.2649,0.2685,0.2695,0.27,0.2709,0.2708,0.2734,0.2738,0.2758,0.2781,0.2787,0.2802,0.2792,0.286,0.2861,0.2862,0.2855,0.2856,0.2857,0,0,0,0,0,0.2576,0.258,0.2593,0.2603,0.2653,0.2685,0.2691,0.271,0.2709,0.2706,0.2726,0.2737,0.2792,0.2783,0.279,0.2806,0.2859,0.286,0.2862,0.2855,0.2856,0.2857,0,0,0,0,0,0,0.2528,0.2583,0.2598,0.2617,0.2646,0.2688,0.2692,0.2703,0.2717,0.2715,0.2742,0.2748,0.2776,0.2789,0.2778,0.2831,0.2828,0.2831,0.2821,0.2822,0.2823,0.2852,0.2794,0,0,0,0,0,0.2522,0.2541,0.259,0.2604,0.2619,0.2653,0.2665,0.2679,0.2704,0.2709,0.2726,0.2752,0.2789,0.2801,0.2829,0.2852,0.2912,0.2869,0.2869,0.287,0.2898,0.3,0.3013,0.2866,0.2866,0.2866,0,0,0.2506,0.2541,0.255,0.2595,0.262,0.2653,0.2657,0.2676,0.2703,0.2714,0.2738,0.2755,0.2796,0.2828,0.2841,0.2838,0.2941,0.2872,0.2872,0.2901,0.3003,0.3018,0.3031,0.2867,0.2867,0.2867,0,0,0.2496,0.2517,0.2535,0.2564,0.2607,0.2636,0.2639,0.2674,0.2686,0.2711,0.2737,0.2766,0.2794,0.2843,0.287,0.2894,0.2944,0.2888,0.2915,0.3012,0.3026,0.3039,0.3125,0.3146,0.2886,0.2886,0.2886,0,0.2474,0.2513,0.254,0.2572,0.2604,0.263,0.2661,0.2684,0.2716,0.2749,0.2715,0.2803,0.2816,0.2906,0.2903,0.2901,0.2957,0.2905,0.3016,0.303,0.3044,0.3129,0.3152,0.2885,0.2885,0.2885,0.2886,0,0.2489,0.252,0.2532,0.2591,0.2621,0.2648,0.2697,0.2719,0.2729,0.2766,0.2828,0.2844,0.2911,0.2903,0.2905,0.3007,0.3016,0.3007,0.3016,0.3059,0.3145,0.3169,0.2885,0.2885,0.2885,0.2885,0,0,0.2445,0.2528,0.2531,0.2571,0.2636,0.2666,0.2719,0.2793,0.2845,0.2858,0.2931,0.2968,0.2985,0.3018,0.3026,0.3082,0.3199,0.3074,0.3079,0.3165,0.3416,0.3257,0.3268,0.3207,0.3211,0.3214,0.3435,0,0.2451,0.2513,0.2557,0.2619,0.266,0.2716,0.2771,0.2838,0.2882,0.2951,0.2999,0.306,0.3031,0.3051,0.3114,0.3184,0.3264,0.314,0.3358,0.3366,0.3224,0.3291,0.2909,0.3059,0.3459,0.3463,0.3466,0,0.2455,0.2503,0.2564,0.2661,0.2683,0.2723,0.2832,0.2886,0.3001,0.3035,0.3119,0.3154,0.3262,0.3202,0.3393,0.3315,0.3378,0.3416,0.3425,0.3303,0.3251,0.3083,0.3088,0.3507,0.3503,0.35,0.3498,0,0.2423,0.2509,0.2562,0.2592,0.27,0.2742,0.2802,0.2912,0.2972,0.31,0.3155,0.3285,0.3352,0.3458,0.3536,0.3482,0.373,0.3675,0.3609,0.3599,0.3331,0.3289,0.3834,0.3833,0.3833,0.3832,0.3831,0,0.2424,0.2463,0.2549,0.258,0.2647,0.2729,0.2811,0.289,0.3009,0.3108,0.32,0.3295,0.3416,0.3554,0.3612,0.3692,0.3819,0.3644,0.3653,0.3313,0.3268,0.3697,0.3678,0.384,0.3839,0.3837,0.3836,0,0.2389,0.2442,0.2506,0.2607,0.2634,0.2683,0.2797,0.2868,0.2984,0.3117,0.3163,0.3345,0.3524,0.3642,0.3828,0.3778,0.3871,0.3874,0.3454,0.3406,0.3658,0.3636,0.382,0.3816,0.3813,0.381,0.3808,0,0.2382,0.2411,0.2501,0.2533,0.2577,0.2654,0.2714,0.2836,0.2925,0.3149,0.3225,0.3423,0.3529,0.3728,0.3654,0.3723,0.3902,0.3445,0.325,0.3671,0.3662,0.3645,0.3628,0.291,0.2901,0.2894,0.2887,0,0.2378,0.2402,0.2458,0.2511,0.2567,0.2627,0.2728,0.2781,0.2958,0.306,0.3238,0.3325,0.3432,0.3291,0.3333,0.3321,0.3381,0.3287,0.3893,0.2942,0.2822,0.281,0.2822,0.282,0.2826,0.2831,0.2835,0.2838,0.2371,0.2399,0.246,0.2499,0.2552,0.2597,0.2622,0.274,0.2835,0.2912,0.3088,0.3048,0.3006,0.2805,0.2801,0.2765,0.2963,0.285,0.2871,0.2901,0.2725,0.2602,0.2528,0.2533,0.2537,0.2541,0.2544,0,0.2367,0.2397,0.2445,0.2489,0.2504,0.2545,0.2631,0.2622,0.2687,0.2672,0.2712,0.2349,0.2239,0.2307,0.207,0.2058,0.2011,0.2073,0.1986,0.205,0.2108,0.1891,0.1474,0.1473,0.1471,0.1469,0,0,0.2375,0.2406,0.2418,0.2421,0.2437,0.2433,0.2448,0.2436,0.2397,0.2176,0.201,0.2006,0.2086,0.1688,0.1664,0.1564,0.1806,0.1502,0.2331,0.2283,0.2339,0.25,0.223,0,0,0,0,0]},{"header":{"parameterUnit":"m.s-1","parameterCategory":2,"la1":30.2991,"la2":30.254,"lo1":-89.0895,"lo2":-89.0444,"dy":0.0017,"dx":0.0017,"nx":28,"ny":28,"refTime":"2023-07-26T03:00:00:Z","depth":"2","parameterNumber":3,"parameterNumberName":"V-component_of_CURRENTS"},"data":[0,0,0,0,0,0,0,0,0,0,0,0,0,0,0,0,0,0,0,0,0,0,0,0,0,0,0,0,0,0,0,0,0,0,0,0,0,0,0,0,0,0,0,0,0,0,0,0,0,0,0,0,0,0,0,0,0,0,0.0099,0.0099,0,0.0053,0.0053,0.0052,0.0027,0.0027,0.0027,0.0027,-0.0015,-0.0016,-0.0017,0,0,0,0,0,0,0,0,0,0,0,0,0,0.0174,0.0173,0.0099,0.0099,0.0098,0.0053,0.0053,0.0052,0.0027,0.0027,0.0027,0.0026,-0.0015,-0.0016,-0.0017,0,0,0,0,0,0,0,0,0,0,0,0,0,0.0139,0.0173,0.01,0.0078,0.0075,0.0053,0.0053,0.0052,0.0028,0.0027,0.0027,0.0026,-0.0015,-0.0016,-0.0017,-0.0016,0,0,-0.0021,-0.0021,0,0,0,0,0,0,0,0,0.0141,0.0136,0.0082,0.0079,0.0076,0.0043,0.0064,0.0029,0.0028,0.0049,0.0027,0.0026,0.0003,0.0001,-0.0003,-0.0018,-0.002,-0.0021,-0.0022,-0.0022,-0.0023,0,0,0,0,0,0,0,0.0143,0.0138,0.0084,0.0081,0.0078,0.0073,0.0068,0.0057,0.0031,0.0047,0.0044,0.0035,0.0002,-0.0002,-0.0005,-0.002,-0.0021,-0.0022,-0.0023,-0.0023,-0.0034,-0.0034,0,0,0,0,0,0,0.0143,0.014,0.0085,0.0082,0.0105,0.0072,0.0066,0.0057,0.0031,0.0026,0.0035,0.0034,0.0,-0.0003,-0.0006,-0.001,-0.0022,-0.0023,-0.0024,-0.0035,-0.0034,-0.0034,0,0,0,0,0,0,0.0145,0.0139,0.0087,0.0108,0.0101,0.0071,0.006,0.0056,0.0047,0.0022,0.0017,0.003,-0.0,-0.0004,-0.0003,-0.0011,-0.0024,-0.0025,-0.0035,-0.0034,-0.0034,-0.0014,0,0,0,0,0,0,0.0148,0.014,0.0138,0.0108,0.01,0.0081,0.006,0.0055,0.0041,0.0038,0.0016,0.0012,-0.0001,-0.0001,-0.0004,-0.0013,-0.0026,-0.0036,-0.0035,-0.0034,-0.0015,-0.0013,-0.0011,0,0,0,0,0,0.0151,0.0153,0.0138,0.0131,0.0096,0.0081,0.0077,0.0056,0.0041,0.0045,0.0035,0.0012,0.0002,-0.0001,-0.0005,-0.0015,-0.0036,-0.0035,-0.0034,-0.0016,-0.0013,-0.0011,0,0,0,0,0,0,0.0189,0.015,0.0133,0.0124,0.0105,0.0076,0.0073,0.0056,0.005,0.0046,0.0024,0.0021,0.0018,0.0005,0.0002,-0.0014,-0.0024,-0.0023,-0.0009,-0.0006,-0.0004,0.0005,-0.0027,0,0,0,0,0,0.0194,0.0184,0.0148,0.0143,0.013,0.01,0.0091,0.0076,0.0062,0.0057,0.0042,0.0027,0.0019,0.001,0.0004,-0.0003,-0.0024,-0.0013,-0.0011,-0.0009,-0.0003,-0.0047,-0.0049,-0.003,-0.003,-0.003,0,0,0.0208,0.0184,0.0179,0.015,0.0129,0.0125,0.0094,0.0081,0.008,0.0055,0.0053,0.0038,0.0022,0.0018,0.0013,0.0004,-0.0022,-0.0007,-0.0006,-0.0001,-0.0047,-0.0049,-0.0051,-0.0029,-0.003,-0.003,0,0,0.0234,0.0206,0.0206,0.0191,0.016,0.0143,0.0139,0.0109,0.0098,0.0095,0.0076,0.006,0.0047,0.0031,0.0022,0.0034,-0.0003,0.0026,0.0036,-0.0006,-0.0009,-0.0011,-0.0029,-0.0033,0.0021,0.0021,0.0021,0,0.0252,0.0243,0.0207,0.0204,0.0198,0.0153,0.0161,0.0142,0.0121,0.0119,0.01,0.0074,0.0052,0.0043,0.0044,0.0036,0.0015,0.0025,-0.0005,-0.0008,-0.0011,-0.0028,-0.0033,0.0022,0.0022,0.0022,0.0021,0,0.0274,0.0269,0.0268,0.0248,0.0243,0.0239,0.0208,0.0201,0.0176,0.0158,0.0141,0.0107,0.0093,0.0073,0.006,0.0033,0.0026,0.0006,-0.0015,-0.0012,-0.003,-0.0035,0.0023,0.0023,0.0023,0.0022,0,0,0.0307,0.0288,0.0286,0.0293,0.0265,0.0266,0.0263,0.0252,0.0259,0.0212,0.0215,0.0169,0.014,0.0128,0.0094,0.0046,0.0004,0.0017,0.0014,-0.0005,-0.0076,-0.007,-0.0076,-0.0029,-0.0031,-0.0031,-0.0077,0,0.0334,0.0345,0.0329,0.0352,0.0356,0.0329,0.0339,0.0326,0.0304,0.0296,0.023,0.0222,0.0162,0.0155,0.0094,0.0041,-0.0011,0.002,-0.0073,-0.0075,-0.0075,-0.0082,-0.012,-0.0164,-0.0083,-0.0084,-0.0085,0,0.0356,0.0362,0.0384,0.0408,0.0408,0.0421,0.0433,0.0439,0.0412,0.0396,0.0353,0.0308,0.0247,0.0187,0.0067,0.009,0.0008,-0.0052,-0.0056,-0.0061,-0.0079,-0.0156,-0.0177,-0.0094,-0.0093,-0.0093,-0.0092,0,0.0389,0.0405,0.0427,0.043,0.0443,0.0461,0.0475,0.0469,0.0485,0.046,0.0467,0.0378,0.0351,0.0223,0.0104,0.008,-0.0024,-0.0073,-0.0147,-0.0147,-0.0201,-0.0203,-0.0174,-0.0174,-0.0174,-0.0174,-0.0174,0,0.0418,0.0438,0.0446,0.0457,0.0503,0.0506,0.0553,0.0555,0.0566,0.0601,0.0522,0.0532,0.0354,0.0276,0.0137,-0.0,-0.0,-0.0142,-0.0164,-0.0192,-0.0193,-0.0151,-0.0148,-0.0176,-0.0175,-0.0175,-0.0175,0,0.0441,0.0443,0.0473,0.0499,0.0514,0.0549,0.0606,0.0645,0.0653,0.0696,0.0693,0.0644,0.0559,0.0391,0.0213,0.0067,-0.0077,-0.013,-0.0132,-0.0154,-0.0185,-0.018,-0.0238,-0.0238,-0.0238,-0.0238,-0.0239,0,0.0452,0.0465,0.05,0.0529,0.0542,0.0596,0.0642,0.0676,0.0725,0.0776,0.0806,0.0752,0.075,0.0512,0.0218,-0.0019,-0.0032,-0.0201,-0.027,-0.0179,-0.0194,-0.0189,-0.0184,-0.0333,-0.0334,-0.0335,-0.0335,0,0.0477,0.0481,0.0506,0.0562,0.0612,0.068,0.0751,0.0805,0.0863,0.0934,0.1016,0.1031,0.0791,0.0529,0.0205,0.004,-0.017,-0.0223,-0.014,-0.0298,-0.027,-0.0284,-0.0276,-0.0342,-0.0341,-0.0341,-0.034,-0.034,0.0493,0.0515,0.0548,0.0604,0.0671,0.0768,0.0845,0.095,0.1074,0.1194,0.1175,0.1163,0.081,0.0365,0.0102,-0.0204,-0.0199,-0.0335,-0.0333,-0.0331,-0.0321,-0.0293,-0.0367,-0.0366,-0.0366,-0.0365,-0.0365,0,0.0516,0.0543,0.0597,0.0673,0.0758,0.0789,0.0925,0.1035,0.122,0.1269,0.1358,0.0988,0.0716,0.0364,-0.0135,-0.0392,-0.0416,-0.0433,-0.0447,-0.0439,-0.0433,-0.0429,-0.0503,-0.0504,-0.0504,-0.0505,0,0,0.0533,0.0575,0.0603,0.0733,0.0803,0.0938,0.1029,0.1216,0.1284,0.1359,0.1281,0.1188,0.071,0.0312,-0.0035,-0.0273,-0.0274,-0.0295,-0.0168,-0.0137,-0.0126,-0.0374,-0.0358,0,0,0,0,0]}],[{"header":{"parameterUnit":"m.s-1","parameterCategory":2,"la1":30.2991,"la2":30.254,"lo1":-89.0895,"lo2":-89.0444,"dy":0.0017,"dx":0.0017,"nx":28,"ny":28,"refTime":"2023-07-26T03:00:00:Z","depth":"4","parameterNumber":2,"parameterNumberName":"U-component_of_CURRENTS"},"data":[0,0,0,0,0,0,0,0,0,0,0,0,0,0,0,0,0,0,0,0,0,0,0,0,0,0,0,0,0,0,0,0,0,0,0,0,0,0,0,0,0,0,0,0,0,0,0,0,0,0,0,0,0,0,0,0,0,0,0.0757,0.0757,0,0.0786,0.0786,0.0787,0.0868,0.087,0.0871,0.0873,0.0924,0.0924,0.0923,0,0,0,0,0,0,0,0,0,0,0,0,0,0.0701,0.0702,0.0757,0.0757,0.0758,0.0786,0.0786,0.0787,0.0867,0.087,0.0872,0.0874,0.0924,0.0924,0.0923,0,0,0,0,0,0,0,0,0,0,0,0,0,0.0725,0.0702,0.0757,0.0803,0.0807,0.0786,0.0786,0.0787,0.0867,0.087,0.0873,0.0875,0.0924,0.0924,0.0923,0.0862,0,0,0.0921,0.0921,0,0,0,0,0,0,0,0,0.0724,0.0727,0.0795,0.08,0.0805,0.0828,0.0785,0.0813,0.0866,0.0842,0.0873,0.0877,0.0893,0.0895,0.0891,0.0864,0.0866,0.0921,0.0921,0.092,0.092,0,0,0,0,0,0,0,0.0722,0.0726,0.0767,0.0796,0.0801,0.0798,0.0805,0.0791,0.085,0.0845,0.0851,0.0856,0.0896,0.0892,0.0893,0.0867,0.0921,0.092,0.092,0.092,0.0969,0.097,0,0,0,0,0,0,0.0723,0.0725,0.0766,0.0768,0.0773,0.0797,0.0805,0.0816,0.085,0.0858,0.0854,0.086,0.0891,0.0894,0.0895,0.0976,0.092,0.092,0.0919,0.0967,0.0969,0.0971,0,0,0,0,0,0,0.0721,0.0726,0.0765,0.0748,0.0753,0.0796,0.0807,0.0815,0.0856,0.0857,0.0866,0.0892,0.0894,0.0896,0.0912,0.0973,0.0919,0.0919,0.0965,0.0968,0.097,0.1041,0,0,0,0,0,0,0.072,0.0726,0.0738,0.0748,0.0754,0.0776,0.0805,0.0814,0.0853,0.0862,0.0891,0.0897,0.0896,0.0913,0.0911,0.0971,0.0918,0.0963,0.0966,0.0969,0.1036,0.1045,0.1053,0,0,0,0,0,0.0718,0.0721,0.0739,0.0744,0.0769,0.0777,0.0779,0.0817,0.0852,0.0866,0.0887,0.0898,0.0934,0.0912,0.091,0.0972,0.0961,0.0965,0.0969,0.1032,0.1044,0.1053,0,0,0,0,0,0,0.0696,0.073,0.075,0.0763,0.0781,0.0792,0.081,0.0833,0.0859,0.087,0.089,0.0895,0.0934,0.0934,0.091,0.0998,0.0961,0.0964,0.101,0.102,0.1029,0.1053,0.0918,0,0,0,0,0,0.0696,0.0712,0.074,0.0747,0.0768,0.0795,0.0807,0.0822,0.0841,0.0859,0.0898,0.0926,0.0937,0.0965,0.0964,0.0997,0.0976,0.1045,0.1053,0.1061,0.108,0.1101,0.1113,0.0983,0.0983,0.0983,0,0,0.07,0.0706,0.0726,0.0744,0.0768,0.0806,0.0811,0.0827,0.0863,0.0854,0.0936,0.094,0.0945,0.0987,0.101,0.1006,0.1077,0.1065,0.1072,0.1088,0.1106,0.1119,0.113,0.0986,0.0985,0.0985,0,0,0.07,0.0718,0.0746,0.0765,0.0787,0.0804,0.0822,0.0863,0.0896,0.0938,0.0951,0.0986,0.1034,0.1049,0.1059,0.1109,0.1104,0.114,0.1225,0.1244,0.1255,0.1264,0.121,0.1214,0.1167,0.1167,0.1167,0,0.0709,0.0729,0.0751,0.0778,0.0793,0.0822,0.0851,0.0885,0.0929,0.0944,0.0981,0.105,0.1062,0.1098,0.1149,0.113,0.1127,0.1183,0.1255,0.1265,0.1273,0.1215,0.1219,0.1171,0.1171,0.117,0.117,0,0.0726,0.0758,0.0772,0.0829,0.0849,0.086,0.0911,0.0938,0.099,0.1032,0.1089,0.1112,0.1168,0.1188,0.12,0.1277,0.1246,0.1243,0.1228,0.129,0.1224,0.1227,0.1177,0.1175,0.1174,0.1173,0,0,0.0709,0.0778,0.0785,0.0817,0.0861,0.0877,0.0923,0.0962,0.1016,0.1083,0.1152,0.1211,0.1261,0.1277,0.1298,0.1346,0.1397,0.1363,0.1362,0.1305,0.1411,0.1333,0.1327,0.1433,0.1435,0.1437,0.1323,0,0.072,0.0766,0.0793,0.0856,0.0894,0.0911,0.0982,0.1016,0.1062,0.1147,0.1173,0.1273,0.1289,0.1354,0.1397,0.1386,0.1418,0.1426,0.1364,0.136,0.1282,0.1333,0.1444,0.1325,0.1326,0.1326,0.1326,0,0.0732,0.0749,0.0806,0.0879,0.0904,0.0962,0.1014,0.1075,0.116,0.1209,0.1276,0.1337,0.1404,0.1441,0.1447,0.1464,0.1472,0.1459,0.1454,0.1368,0.129,0.1262,0.133,0.133,0.1329,0.1329,0.1329,0,0.0686,0.0762,0.0797,0.0819,0.092,0.0947,0.1013,0.1098,0.1148,0.1274,0.1323,0.1402,0.1466,0.1478,0.1479,0.1492,0.1468,0.1452,0.1363,0.1353,0.1422,0.1413,0.1492,0.1492,0.1492,0.1492,0.1493,0,0.0663,0.0694,0.0798,0.0811,0.0902,0.0971,0.1064,0.1135,0.1231,0.1297,0.1396,0.1429,0.1508,0.15,0.1482,0.141,0.1457,0.1383,0.1342,0.1445,0.1442,0.1419,0.1412,0.1488,0.1489,0.149,0.1491,0,0.0607,0.0674,0.0724,0.0828,0.0891,0.0956,0.1097,0.1141,0.1261,0.1327,0.1384,0.1464,0.1451,0.1451,0.1451,0.1403,0.1345,0.1323,0.139,0.1351,0.1201,0.1199,0.1177,0.1174,0.1171,0.1169,0.1167,0,0.0575,0.0603,0.0728,0.0782,0.0839,0.0953,0.1031,0.1162,0.1179,0.1306,0.1304,0.1375,0.1406,0.1282,0.1316,0.1235,0.1252,0.1215,0.1269,0.1218,0.118,0.1182,0.1184,0.1162,0.1162,0.1161,0.116,0,0.0505,0.0567,0.0604,0.0723,0.0814,0.0891,0.0989,0.0999,0.1122,0.1226,0.1234,0.1259,0.1234,0.1212,0.1196,0.1139,0.1228,0.1187,0.1192,0.1243,0.12,0.1166,0.1171,0.1151,0.1152,0.1153,0.1154,0,0.0464,0.0477,0.0558,0.0654,0.0764,0.0803,0.0861,0.0893,0.0958,0.1087,0.1075,0.1126,0.121,0.1158,0.1106,0.108,0.1067,0.106,0.1072,0.1082,0.1113,0.105,0.0928,0,0,0,0,0,0.0433,0.044,0.0489,0.058,0.0668,0.0743,0.0823,0.0856,0.096,0.0944,0.1021,0.1,0.1001,0.1009,0.0956,0.1024,0.1043,0.096,0.1034,0.1099,0.111,0.116,0,0,0,0,0,0,0.0408,0.0455,0.0452,0.0503,0.055,0.0634,0.0683,0.074,0.0728,0.0846,0.0827,0.096,0.0932,0.1017,0.0944,0.0948,0.098,0.1004,0.1002,0.1093,0.1103,0.1112,0.1167,0,0,0,0,0]},{"header":{"parameterUnit":"m.s-1","parameterCategory":2,"la1":30.2991,"la2":30.254,"lo1":-89.0895,"lo2":-89.0444,"dy":0.0017,"dx":0.0017,"nx":28,"ny":28,"refTime":"2023-07-26T03:00:00:Z","depth":"4","parameterNumber":3,"parameterNumberName":"V-component_of_CURRENTS"},"data":[0,0,0,0,0,0,0,0,0,0,0,0,0,0,0,0,0,0,0,0,0,0,0,0,0,0,0,0,0,0,0,0,0,0,0,0,0,0,0,0,0,0,0,0,0,0,0,0,0,0,0,0,0,0,0,0,0,0,-0.0094,-0.0095,0,-0.0162,-0.0163,-0.0164,-0.0204,-0.0204,-0.0204,-0.0204,-0.0278,-0.028,-0.0282,0,0,0,0,0,0,0,0,0,0,0,0,0,-0.004,-0.004,-0.0094,-0.0095,-0.0095,-0.0162,-0.0163,-0.0164,-0.0204,-0.0204,-0.0204,-0.0204,-0.0278,-0.028,-0.0282,0,0,0,0,0,0,0,0,0,0,0,0,0,-0.0083,-0.0041,-0.0094,-0.0121,-0.0124,-0.0162,-0.0163,-0.0164,-0.0204,-0.0204,-0.0204,-0.0204,-0.0277,-0.028,-0.0283,-0.0303,0,0,-0.0292,-0.0293,0,0,0,0,0,0,0,0,-0.0081,-0.0085,-0.0117,-0.012,-0.0123,-0.0172,-0.0171,-0.021,-0.0204,-0.0176,-0.0204,-0.0204,-0.0242,-0.0248,-0.0264,-0.0306,-0.0309,-0.0292,-0.0294,-0.0295,-0.0296,0,0,0,0,0,0,0,-0.0077,-0.0083,-0.0123,-0.0117,-0.0121,-0.0144,-0.015,-0.0179,-0.0211,-0.0179,-0.0181,-0.0185,-0.0244,-0.0261,-0.0266,-0.0311,-0.0292,-0.0295,-0.0297,-0.0298,-0.0401,-0.0402,0,0,0,0,0,0,-0.0062,-0.008,-0.0121,-0.0125,-0.0099,-0.0145,-0.0152,-0.0158,-0.021,-0.0217,-0.0185,-0.0187,-0.0256,-0.0262,-0.0269,-0.0309,-0.0295,-0.0298,-0.03,-0.0401,-0.0402,-0.0403,0,0,0,0,0,0,-0.0061,-0.0066,-0.0118,-0.0102,-0.011,-0.0145,-0.0153,-0.016,-0.0183,-0.0214,-0.0222,-0.0202,-0.0256,-0.0264,-0.0291,-0.0312,-0.03,-0.0302,-0.0399,-0.0401,-0.0402,-0.0382,0,0,0,0,0,0,-0.0059,-0.0065,-0.007,-0.0101,-0.011,-0.0137,-0.0153,-0.0161,-0.0184,-0.0187,-0.0231,-0.0238,-0.0257,-0.0286,-0.0294,-0.0316,-0.0305,-0.0398,-0.04,-0.0402,-0.0381,-0.0382,-0.0383,0,0,0,0,0,-0.0057,-0.0061,-0.007,-0.0075,-0.0115,-0.0137,-0.0145,-0.0171,-0.0185,-0.0193,-0.0219,-0.0237,-0.0304,-0.0289,-0.0298,-0.0321,-0.0397,-0.04,-0.0402,-0.0381,-0.0382,-0.0383,0,0,0,0,0,0,-0.0045,-0.0066,-0.0077,-0.0088,-0.0109,-0.0143,-0.0155,-0.0174,-0.0204,-0.0207,-0.024,-0.0248,-0.0283,-0.0305,-0.0288,-0.0358,-0.0357,-0.0361,-0.0339,-0.034,-0.0341,-0.0326,-0.0307,0,0,0,0,0,-0.0042,-0.0048,-0.0074,-0.0083,-0.0094,-0.0127,-0.0142,-0.0157,-0.0183,-0.0197,-0.0231,-0.0267,-0.0299,-0.0319,-0.0348,-0.0382,-0.0392,-0.0407,-0.0408,-0.0409,-0.0404,-0.0451,-0.0455,-0.041,-0.041,-0.0409,0,0,-0.0044,-0.0052,-0.006,-0.008,-0.0102,-0.0116,-0.0137,-0.0155,-0.0167,-0.02,-0.0234,-0.0268,-0.0308,-0.0344,-0.0363,-0.0364,-0.0421,-0.0411,-0.0411,-0.0406,-0.0453,-0.0458,-0.0462,-0.0411,-0.0411,-0.041,0,0,-0.004,-0.0054,-0.0058,-0.0073,-0.0092,-0.011,-0.0114,-0.0151,-0.0168,-0.02,-0.0229,-0.0267,-0.0325,-0.0353,-0.0375,-0.04,-0.0421,-0.0424,-0.042,-0.0466,-0.047,-0.0473,-0.0458,-0.0461,-0.0428,-0.0428,-0.0428,0,-0.004,-0.0044,-0.0064,-0.0069,-0.0076,-0.0106,-0.0111,-0.0135,-0.0176,-0.0183,-0.0207,-0.029,-0.0328,-0.0364,-0.0383,-0.0402,-0.0415,-0.0409,-0.0466,-0.047,-0.0474,-0.0458,-0.0461,-0.0427,-0.0427,-0.0428,-0.0428,0,-0.0039,-0.0044,-0.0047,-0.0061,-0.0074,-0.008,-0.0107,-0.012,-0.0148,-0.0175,-0.0219,-0.0275,-0.0321,-0.0353,-0.0381,-0.0432,-0.0425,-0.0456,-0.0457,-0.0477,-0.0459,-0.0462,-0.0426,-0.0427,-0.0427,-0.0427,0,0,-0.0034,-0.0043,-0.0044,-0.004,-0.0064,-0.0069,-0.0082,-0.0097,-0.0101,-0.0159,-0.0179,-0.0257,-0.0292,-0.0321,-0.0367,-0.0419,-0.0458,-0.0457,-0.046,-0.0429,-0.0523,-0.0507,-0.0508,-0.0511,-0.0513,-0.0514,-0.0486,0,-0.0026,-0.0016,-0.0029,-0.0027,-0.0025,-0.0043,-0.0052,-0.0068,-0.0096,-0.0125,-0.0184,-0.0229,-0.0279,-0.0311,-0.037,-0.0439,-0.0473,-0.046,-0.0519,-0.0519,-0.0494,-0.0515,-0.0518,-0.0489,-0.049,-0.049,-0.0491,0,-0.0022,-0.0008,0.0003,0.001,0.0007,0.0,0.0003,-0.0011,-0.0049,-0.0073,-0.0122,-0.0175,-0.0243,-0.0301,-0.0402,-0.0395,-0.0457,-0.0509,-0.051,-0.0506,-0.0511,-0.0476,-0.0497,-0.0496,-0.0496,-0.0495,-0.0495,0,0.0007,0.0012,0.0033,0.0031,0.0028,0.0036,0.0029,0.0006,0.0013,-0.0043,-0.0049,-0.0138,-0.0181,-0.0281,-0.0389,-0.0404,-0.0501,-0.0527,-0.0552,-0.0548,-0.0577,-0.0574,-0.0601,-0.0601,-0.0601,-0.0601,-0.0602,0,0.0027,0.004,0.005,0.006,0.0088,0.0065,0.0087,0.0068,0.0052,0.0061,-0.0026,-0.0046,-0.0191,-0.0263,-0.0366,-0.0457,-0.0474,-0.0544,-0.0554,-0.0564,-0.056,-0.0577,-0.0574,-0.06,-0.0601,-0.0601,-0.0601,0,0.005,0.0054,0.0081,0.0094,0.0103,0.0118,0.014,0.0157,0.0129,0.0139,0.0124,0.003,-0.0076,-0.0194,-0.0349,-0.0406,-0.0509,-0.0539,-0.0494,-0.0503,-0.0519,-0.0516,-0.0542,-0.0541,-0.0541,-0.054,-0.054,0,0.0064,0.0082,0.0116,0.014,0.0147,0.0176,0.0201,0.0195,0.0216,0.0187,0.0192,0.0094,0.0018,-0.015,-0.0306,-0.0458,-0.05,-0.0509,-0.0562,-0.0512,-0.0519,-0.0517,-0.0514,-0.054,-0.0539,-0.0539,-0.0539,0,0.0092,0.0102,0.0128,0.0185,0.0218,0.0261,0.0292,0.0319,0.0313,0.0307,0.0257,0.015,0.0033,-0.0139,-0.0258,-0.0381,-0.0483,-0.0505,-0.0508,-0.0557,-0.051,-0.0517,-0.0515,-0.0538,-0.0538,-0.0538,-0.0538,0,0.0113,0.0135,0.0172,0.022,0.0271,0.0313,0.0331,0.0352,0.0369,0.0343,0.0323,0.0174,0.0086,-0.0099,-0.0217,-0.0329,-0.0366,-0.0382,-0.0391,-0.0395,-0.0384,-0.0305,-0.0275,0,0,0,0,0,0.0138,0.0161,0.0204,0.0249,0.0304,0.0332,0.0379,0.0393,0.0405,0.0388,0.036,0.0244,0.0052,-0.0053,-0.0162,-0.0227,-0.0393,-0.0356,-0.0418,-0.053,-0.0531,-0.0547,0,0,0,0,0,0,0.0145,0.019,0.0204,0.0269,0.0307,0.0364,0.0394,0.0401,0.039,0.038,0.0267,0.0237,0.003,0.0109,-0.0163,-0.02,-0.0246,-0.0448,-0.045,-0.0529,-0.053,-0.0532,-0.0548,0,0,0,0,0]}]]